Regional Weather Roundup
Issued by NWS

Home | Current Version | Previous Version | Text Only | Print | Product List | Glossary Off
Versions: 1 2 3 4 5 6 7 8 9 10 11 12 13 14 15 16 17 18 19 20 21 22 23 24 25 26 27 28 29 30 31 32 33 34 35 36 37 38 39 40 41 42 43 44 45 46 47 48 49 50

000
ASUS43 KBIS 251720
RWRND

NORTH DAKOTA REGIONAL WEATHER ROUNDUP
NATIONAL WEATHER SERVICE BISMARCK ND
1200 PM CDT MON MAY 25 2015

NOTE: "FAIR" INDICATES FEW OR NO CLOUDS BELOW 12,000 FEET WITH NO
SIGNIFICANT WEATHER AND/OR OBSTRUCTIONS TO VISIBILITY.


NDZ001>003-009>011-017-251800-
NORTHWEST NORTH DAKOTA

CITY           SKY/WX    TMP DP  RH WIND       PRES   REMARKS
WILLISTON      MOSUNNY   72  46  39 CALM      29.87F
MINOT          PTSUNNY   73  46  38 VRB5      29.84F
MINOT AFB      MOSUNNY   78  47  33 E5        29.83S
$$

NDZ018>021-031>035-040>046-251800-
SOUTHWEST NORTH DAKOTA

CITY           SKY/WX    TMP DP  RH WIND       PRES   REMARKS
BISMARCK       CLOUDY    64  55  72 VRB3      29.86S
DICKINSON      CLOUDY    58  53  84 E7        29.88S
GARRISON         N/A     68  50  52 E3        29.85F
HETTINGER ARPT LGT RAIN  56  53  90 NE15      29.88S FOG
$$

NDZ004>008-012>016-024-026-027-054-251800-
NORTHEAST NORTH DAKOTA

CITY           SKY/WX    TMP DP  RH WIND       PRES   REMARKS
GRAND FORKS    CLOUDY    66  50  56 NW6       29.76S
GRND FRKS AFB  CLOUDY    66  49  53 N8        29.77S
DEVILS LAKE    CLOUDY    73  48  40 NW6       29.79F
$$

NDZ022-023-025-028>030-036>039-047>053-251800-
SOUTHEAST NORTH DAKOTA

CITY           SKY/WX    TMP DP  RH WIND       PRES   REMARKS
FARGO          LGT RAIN  63  57  81 NE9       29.78R
JAMESTOWN      PTSUNNY   65  57  75 NW6       29.80F
$$



USA.gov is the U.S. government's official web portal to all federal, state and local government web resources and services.